TimeEST,TemperatureF,Dew PointF,Humidity,Sea Level PressureIn,VisibilityMPH,Wind Direction,Wind SpeedMPH,Gust SpeedMPH,PrecipitationIn,Events,Conditions,WindDirDegrees,DateUTC
12:51 AM,53.1,52.0,96,30.21,9.0,WNW,6.9,-,0.00,Rain,Light Rain,300,2012-11-13 05:51:00
1:18 AM,53.6,50.0,88,30.20,10.0,NW,6.9,-,0.00,,Overcast,310,2012-11-13 06:18:00
1:51 AM,51.8,50.0,94,30.20,10.0,WNW,5.8,-,N/A,,Overcast,300,2012-11-13 06:51:00
2:51 AM,51.1,48.0,89,30.20,10.0,WNW,6.9,-,N/A,,Overcast,300,2012-11-13 07:51:00
3:51 AM,50.0,45.0,83,30.21,10.0,West,8.1,-,N/A,,Overcast,280,2012-11-13 08:51:00
4:51 AM,48.9,44.1,83,30.21,10.0,WNW,8.1,-,N/A,,Overcast,300,2012-11-13 09:51:00
5:51 AM,48.0,43.0,83,30.22,10.0,WNW,8.1,-,N/A,,Overcast,290,2012-11-13 10:51:00
6:51 AM,46.0,41.0,83,30.24,10.0,NW,6.9,-,N/A,,Overcast,310,2012-11-13 11:51:00
7:51 AM,45.0,39.9,82,30.27,8.0,WNW,8.1,-,N/A,,Mostly Cloudy,300,2012-11-13 12:51:00
8:51 AM,46.9,39.0,74,30.29,8.0,NW,5.8,-,N/A,,Clear,310,2012-11-13 13:51:00
9:12 AM,48.2,39.2,71,30.29,8.0,NNW,5.8,-,N/A,,Mostly Cloudy,330,2012-11-13 14:12:00
9:41 AM,48.2,39.2,71,30.30,8.0,Calm,Calm,-,N/A,,Overcast,0,2012-11-13 14:41:00
9:51 AM,48.9,39.9,71,30.30,8.0,NNW,4.6,-,N/A,,Overcast,340,2012-11-13 14:51:00
10:51 AM,52.0,45.0,77,30.30,7.0,Calm,Calm,-,N/A,,Overcast,0,2012-11-13 15:51:00
11:24 AM,53.6,46.4,77,30.29,7.0,Variable,5.8,-,N/A,,Overcast,0,2012-11-13 16:24:00
11:51 AM,55.9,46.9,72,30.29,7.0,NE,5.8,-,N/A,,Overcast,50,2012-11-13 16:51:00
12:51 PM,59.0,46.9,64,30.26,8.0,Variable,4.6,-,N/A,,Mostly Cloudy,0,2012-11-13 17:51:00
1:13 PM,60.8,48.2,63,30.25,8.0,Variable,3.5,-,N/A,,Scattered Clouds,0,2012-11-13 18:13:00
1:41 PM,60.8,46.4,59,30.24,8.0,ENE,5.8,-,N/A,,Mostly Cloudy,70,2012-11-13 18:41:00
1:49 PM,62.6,46.4,55,30.24,8.0,NE,8.1,-,N/A,,Mostly Cloudy,40,2012-11-13 18:49:00
1:51 PM,62.1,46.0,56,30.24,8.0,NE,6.9,-,N/A,,Mostly Cloudy,40,2012-11-13 18:51:00
2:51 PM,62.1,45.0,53,30.23,8.0,Variable,3.5,-,N/A,,Scattered Clouds,0,2012-11-13 19:51:00
3:51 PM,60.1,45.0,57,30.23,8.0,ENE,4.6,-,N/A,,Scattered Clouds,60,2012-11-13 20:51:00
4:51 PM,61.0,45.0,56,30.24,8.0,ENE,9.2,-,N/A,,Scattered Clouds,60,2012-11-13 21:51:00
5:51 PM,53.6,44.6,72,30.25,9.0,Calm,Calm,-,N/A,,Partly Cloudy,0,2012-11-13 22:51:00
6:51 PM,51.1,45.0,80,30.28,9.0,East,4.6,-,N/A,,Partly Cloudy,90,2012-11-13 23:51:00
7:51 PM,50.0,44.1,80,30.30,9.0,East,4.6,-,N/A,,Partly Cloudy,80,2012-11-14 00:51:00
8:51 PM,48.9,45.0,86,30.32,8.0,East,5.8,-,N/A,,Clear,100,2012-11-14 01:51:00
9:51 PM,45.0,42.1,90,30.34,8.0,East,4.6,-,N/A,,Clear,80,2012-11-14 02:51:00
10:51 PM,44.1,41.0,89,30.34,8.0,NE,5.8,-,N/A,,Clear,50,2012-11-14 03:51:00
11:51 PM,44.1,39.9,85,30.34,8.0,ENE,8.1,-,N/A,,Clear,70,2012-11-14 04:51:00